#timestamp,LO_Frequency,Hit,StdDev 
1567504815.7,286047000.4,N
1567504835.5,286047000.2,N
1567504855.3,286047000.6,N
1567504875.2,286046998.5,N
1567504895.0,286046998.7,N
1567504895.9,286046998.7,N
1567504915.7,286046998.3,N
1567504935.6,286046997.0,N
1567504955.4,286046997.1,N
1567504975.3,286046995.0,Y
1567504995.1,286046996.8,P
1567505015.8,286046997.3,N
1567505035.7,286046997.2,N
1567505055.5,286046997.2,N
1567505075.4,286046996.9,Y
1567505095.2,286047001.0,P
1567505115.0,286046998.6,N
1567505115.9,286046998.6,N
1567505135.8,286046999.4,N
1567505155.6,286047000.8,N
1567505175.4,286046998.9,N
1567505195.3,286046997.3,N
1567505215.1,286046999.5,N
1567505235.9,286046997.5,N
1567505255.7,286046994.9,Y
1567505275.5,286046997.0,P
1567505295.4,286046996.5,P
1567505315.2,286046997.0,N
1567505335.0,286046999.4,N
1567505335.9,286046999.4,N
1567505355.8,286046996.7,N
1567505375.6,286046997.7,N
1567505395.5,286046996.5,Y
1567505415.3,286047002.1,P
1567505435.1,286047004.3,N
1567505455.9,286047001.3,N
1567505475.7,286047001.6,N
1567505495.5,286047002.7,N
1567505515.4,286047002.1,N
1567505535.2,286047001.5,N
1567505555.1,286047003.1,N
1567505556.0,286047003.1,N
1567505575.8,286047005.3,Y
1567505595.6,286047003.8,P
1567505615.5,286047003.9,P
1567505635.3,286047004.2,P
1567505655.2,286047004.1,Y
1567505675.9,286046999.7,P
1567505695.7,286047000.4,N
1567505715.6,286046999.9,N
1567505735.4,286046998.3,N
1567505755.2,286046998.6,N
1567505775.1,286046999.3,N
1567505776.0,286046999.3,N
1567505795.8,286046999.6,N
1567505815.7,286046996.6,N
1567505835.5,286046996.8,N
1567505855.3,286046997.7,N
1567505875.2,286046995.4,N
1567505895.0,286046997.6,N
1567505895.9,286046997.6,N
1567505915.7,286046997.5,N
1567505935.6,286046997.2,N
1567505955.4,286046998.0,N
1567505975.3,286046997.7,N
1567505995.1,286046997.2,N
1567505996.0,286046997.2,N
1567506015.8,286046997.4,N
1567506035.7,286046995.5,N
1567506055.5,286046995.9,N
1567506075.3,286046996.3,N
1567506095.2,286046996.8,N
1567506115.0,286046995.4,N
1567506115.9,286046995.4,N
1567506135.8,286046998.0,N
1567506155.6,286046994.2,Y
1567506175.4,286046994.9,P
1567506195.3,286046998.2,N
1567506215.1,286047000.3,N
1567506235.8,286047001.2,N
1567506255.7,286046998.1,N
1567506275.5,286047000.8,N
1567506295.4,286047000.9,N
1567506315.2,286047000.1,N
1567506335.0,286047002.6,N
1567506335.9,286047002.6,N
1567506355.8,286047002.2,N
1567506375.6,286046999.7,N
1567506395.5,286046999.0,N
1567506415.3,286047001.1,N
1567506435.1,286047000.7,N
1567506455.9,286046999.8,N
1567506475.7,286047002.7,N
1567506495.5,286047002.6,N
1567506515.4,286047001.8,N
1567506535.2,286047002.4,N
1567506555.1,286047001.7,N
1567506556.0,286047001.7,N
1567506575.8,286047001.7,N
1567506595.6,286047003.9,N
1567506615.5,286047002.1,N
1567506635.3,286047002.2,N
1567506655.1,286047004.4,N
1567506675.9,286047003.5,N
1567506695.7,286047003.8,N
1567506715.6,286047003.8,N
1567506735.4,286047004.0,N
1567506755.2,286047005.6,Y
1567506775.1,286047003.3,P
1567506776.0,286047003.3,P
1567506795.8,286047005.4,P
1567506815.6,286047002.9,N
1567506835.5,286047003.2,N
1567506855.3,286047005.6,Y
1567506875.2,286047000.4,P
1567506895.9,286047002.8,N
1567506915.7,286047002.3,N
1567506935.6,286046999.7,N
1567506955.4,286047000.1,N
1567506975.3,286047000.2,N
1567506995.1,286047002.5,N
1567506996.0,286047002.5,N
1567507015.8,286047000.5,N
1567507035.7,286047000.1,N
1567507055.5,286046999.8,N
1567507075.3,286047002.8,N
1567507095.2,286047002.3,N
1567507115.0,286047001.2,N
1567507115.9,286047001.2,N
1567507135.8,286046998.7,N
1567507155.6,286046996.6,N
1567507175.4,286046998.5,N
1567507195.3,286046998.1,N
1567507215.1,286047000.6,N
1567507235.8,286046998.5,N
1567507255.7,286047000.7,N
1567507275.5,286047001.1,N
1567507295.3,286046998.1,N
1567507315.2,286046997.4,N
1567507335.0,286046997.6,N
1567507335.9,286046997.6,N
1567507355.8,286046997.6,N
1567507375.6,286046995.0,N
1567507395.4,286046995.2,N
1567507415.3,286046995.0,N
1567507435.1,286046993.4,N
1567507455.8,286046993.5,N
1567507475.7,286046993.0,N
1567507495.5,286046992.0,N
1567507515.4,286046994.4,N
1567507535.2,286046993.9,N
1567507555.0,286046993.9,N
1567507555.9,286046993.9,N
1567507575.8,286046993.4,N
1567507595.6,286046994.7,N
1567507615.4,286046994.7,N
1567507635.3,286046993.8,N
1567507655.1,286046994.0,N
1567507675.9,286046993.7,N
1567507695.7,286046993.3,N
1567507715.5,286046991.7,Y
1567507735.4,286046997.1,P
1567507755.2,286046997.3,P
1567507775.0,286046998.7,N
1567507775.9,286046998.7,N
1567507795.8,286046998.4,N
1567507815.6,286046999.6,N
1567507835.5,286046998.0,N
1567507855.3,286046997.5,N
1567507875.1,286046998.0,N
1567507895.9,286046997.6,N
1567507915.7,286046995.5,Y
1567507935.6,286046996.9,P
1567507955.4,286046999.5,N
1567507975.2,286047000.4,N
1567507995.1,286046998.3,N
1567507996.0,286046998.3,N
1567508015.8,286047000.0,N
1567508035.6,286047000.0,N
1567508055.5,286047001.5,N
1567508075.3,286047002.3,N
1567508095.2,286047002.6,N
1567508115.9,286047002.4,N
1567508135.7,286046999.8,N
1567508155.6,286047002.1,N
1567508175.4,286047000.4,N
1567508195.2,286047000.3,N
1567508215.1,286047000.1,N
1567508216.0,286047000.1,N
1567508235.8,286047000.0,N
1567508255.7,286047002.1,N
1567508275.5,286047002.6,N
1567508295.3,286047002.1,N
1567508315.2,286047002.3,N
1567508335.9,286047000.9,N
1567508355.7,286047002.3,N
1567508405.6,286047000.0,E
